Location: ????????
(38.4362°N, 22.8767°E)
Time: 07:46:20
(UTC+00:00)

Cosmos 1633 Rocket - Visible Passes

Search period start: 14 July 2024 00:00
Search period end: 24 July 2024 00:00
Orbit: 603 x 620 km, 82.5° (Epoch: 13 July)

Date Brightness Start Highest point End Pass type
(mag) Time Alt. Az. Time Alt. Az. Time Alt. Az.
16 Jul 5.8 02:14:53 10° SE 02:17:39 17° E 02:20:24 10° NE visible
17 Jul 5.1 02:28:39 10° SSE 02:32:25 29° E 02:36:11 10° NNE visible
18 Jul 3.9 02:43:02 10° S 02:47:17 53° E 02:51:32 10° NNE visible
20 Jul 5.9 01:37:45 10° ESE 01:39:56 14° E 01:42:08 10° NE visible
21 Jul 5.2 01:51:11 10° SE 01:54:42 24° E 01:58:12 10° NE visible
22 Jul 4.2 02:05:24 10° SSE 02:09:31 44° E 02:13:39 10° NNE visible
23 Jul 3.1 02:20:04 10° S 02:24:25 83° E 02:28:46 10° N visible
